Lancaster, CA

10:46 PM PDT on May 27, 2018 (GMT -0700)
Gen Fox

Weather History for KWJF - October, 2013

Change the Weather History Date:

Saturday, October 5, 2013

  Actual Average Record
Temperature  
Mean Temperature 57 °F 67 °F  
Max Temperature 77 °F 84 °F 98 °F (1980)
Min Temperature 36 °F 50 °F 33 °F (1969)
Degree Days  
Heating Degree Days 8    
Month to date heating degree days 23  
Since 1 July heating degree days 44  
Cooling Degree Days 0    
Month to date cooling degree days 16  
Year to date cooling degree days 2204  
Growing Degree Days 7 (Base 50)    
Moisture  
Dew Point 12 °F    
Average Humidity 21    
Maximum Humidity 35    
Minimum Humidity 7    
Precipitation  
Precipitation 0.00 in 0.01 in 0.19 in (2011)
Month to date precipitation 0.00 0.04  
Year to date precipitation 1.12 5.29  
Since 1 July precipitation 0.02  
Snow  
Snow 0.00 in - 0.00 in ()
Month to date snowfall 0.0  
Since 1 July snowfall 0.0  
Since 1 September snowfall 0.0  
Snow Depth 0.00 in    
Sea Level Pressure  
Sea Level Pressure 30.26 in    
Wind  
Wind Speed 10 mph (ENE)    
Max Wind Speed 28 mph    
Max Gust Speed 35 mph    
Visibility 10 miles    
Events      
T = Trace of Precipitation, MM = Missing Value Source: NWS Daily Summary

Daily Weather History Graph

Daily Weather History Graph

Search for Another Location

Airport or City:

Astronomy

Oct. 05, 2013 Rise Set
Actual Time 6:50 AM PDT 6:30 PM PDT
Civil Twilight 6:25 AM PDT 6:56 PM PDT
Nautical Twilight 5:56 AM PDT 7:25 PM PDT
Astronomical Twilight 5:27 AM PDT 7:54 PM PDT
Moon 7:32 AM PDT (10/5) 6:57 PM PDT (10/5)
Length of Visible Light 12h 30m
Length of Day
11h 40m
New Moon, 1% of the Moon is Illuminated
Oct 5
New Moon
Oct 11
First Quarter
Oct 18
Full
Oct 26
Last Quarter
Nov 3
New

Hourly Weather History & Observations

Time (PDT) Temp. Windchill Dew Point Humidity Pressure Visibility Wind Dir Wind Speed Gust Speed Precip Events Conditions
12:56 AM 46.9 °F - 12.9 °F 25% 30.22 in 10.0 mi NE 3.5 mph - N/A   Clear
1:56 AM 46.0 °F 44.8 °F 14.0 °F 28% 30.23 in 10.0 mi WSW 3.5 mph - N/A   Clear
2:56 AM 45.0 °F - 12.9 °F 27% 30.25 in 10.0 mi Calm Calm - N/A   Clear
3:56 AM 39.9 °F 37.8 °F 10.9 °F 31% 30.26 in 10.0 mi WSW 3.5 mph - N/A   Clear
4:56 AM 43.0 °F - 12.0 °F 28% 30.27 in 10.0 mi Calm Calm - N/A   Clear
5:56 AM 37.0 °F 33.3 °F 10.0 °F 33% 30.29 in 10.0 mi WNW 4.6 mph - N/A   Clear
6:56 AM 37.0 °F - 12.0 °F 36% 30.32 in 10.0 mi Calm Calm - N/A   Clear
7:56 AM 46.9 °F - 16.0 °F 29% 30.33 in 10.0 mi Calm Calm - N/A   Clear
8:56 AM 59.0 °F - 18.0 °F 20% 30.32 in 10.0 mi ENE 13.8 mph - N/A   Clear
9:56 AM 64.0 °F - 19.0 °F 18% 30.32 in 10.0 mi ENE 11.5 mph - N/A   Clear
10:56 AM 66.9 °F - 18.0 °F 15% 30.32 in 10.0 mi ENE 18.4 mph 24.2 mph N/A   Clear
11:56 AM 72.0 °F - 16.0 °F 12% 30.30 in 10.0 mi ENE 24.2 mph 32.2 mph N/A   Clear
12:56 PM 73.9 °F - 14.0 °F 10% 30.27 in 10.0 mi East 21.9 mph 31.1 mph N/A   Clear
1:56 PM 75.0 °F - 12.9 °F 9% 30.24 in 10.0 mi East 23.0 mph 29.9 mph N/A   Clear
2:56 PM 77.0 °F - 12.0 °F 8% 30.22 in 10.0 mi East 20.7 mph 28.8 mph N/A   Clear
3:56 PM 77.0 °F - 10.0 °F 8% 30.21 in 10.0 mi East 20.7 mph - N/A   Clear
4:56 PM 75.9 °F - 8.1 °F 7% 30.20 in 10.0 mi ENE 18.4 mph 26.5 mph N/A   Clear
5:56 PM 73.9 °F - 10.0 °F 9% 30.20 in 10.0 mi East 13.8 mph - N/A   Clear
6:56 PM 66.9 °F - 10.9 °F 11% 30.22 in 10.0 mi East 8.1 mph - N/A   Clear
7:56 PM 63.0 °F - 12.0 °F 14% 30.22 in 10.0 mi East 8.1 mph - N/A   Clear
8:56 PM 53.1 °F - 9.0 °F 17% 30.24 in 10.0 mi NE 5.8 mph - N/A   Clear
9:56 PM 48.9 °F - 8.1 °F 19% 30.25 in 10.0 mi North 9.2 mph - N/A   Clear
10:56 PM 53.1 °F - 10.0 °F 18% 30.24 in 10.0 mi NE 9.2 mph - N/A   Clear
11:56 PM 51.1 °F - 10.9 °F 20% 30.24 in 10.0 mi ENE 5.8 mph - N/A   Clear